Location: Vihti�l�
(61.3833°N, 23.0667°E)
Time: 04:19:48
(UTC+00:00)

CZ-2C R/B - Pass Details

Date: 29 November 2020
Orbit: 639 x 705 km, 98.4° (Epoch: 19 January)

Event Time Altitude Azimuth Distance (km) Brightness Sun altitude
Rises 06:08:41 0° 178° (S) 3,090 7.7 -6.5°
Reaches altitude 10° 06:11:00 10° 184° (S) 2,177 6.8 -6.2°
Maximum altitude 06:15:38 49° 259° (W) 912 4.2 -5.8°
Drops below altitude 10° 06:20:18 10° 335° (NNW) 2,181 5.8 -5.3°
Enters shadow 06:22:21 - 341° (NNW) 2,986 6.5 -5.1°
